Time,TemperatureF,DewpointF,PressureIn,WindDirection,WindDirectionDegrees,WindSpeedMPH,WindSpeedGustMPH,Humidity,HourlyPrecipIn,Conditions,Clouds,dailyrainin,SoftwareType,DateUTC
2013-06-10 00:03:00,67.0,65.0,-100.00,SE,145,1.0,4.0,94,0.55,,,-99.99,,2013-06-10 04:03:00,
2013-06-10 00:12:00,67.0,65.0,-100.00,SSE,150,2.0,4.0,95,0.00,,,-99.99,,2013-06-10 04:12:00,
2013-06-10 00:23:00,67.0,65.0,-100.00,SE,140,1.0,3.0,95,0.00,,,-99.99,,2013-06-10 04:23:00,
2013-06-10 00:33:00,67.0,65.0,-100.00,West,275,0.0,2.0,95,0.00,,,-99.99,,2013-06-10 04:33:00,
2013-06-10 00:42:00,67.0,65.0,-100.00,WSW,245,1.0,4.0,96,0.00,,,-99.99,,2013-06-10 04:42:00,
2013-06-10 00:52:00,67.0,65.0,-100.00,South,190,1.0,3.0,95,0.00,,,-99.99,,2013-06-10 04:52:00,
2013-06-10 01:02:00,67.0,65.0,-100.00,SSW,195,1.0,4.0,95,0.00,,,-99.99,,2013-06-10 05:02:00,
2013-06-10 01:12:00,66.0,65.0,-100.00,SE,145,1.0,3.0,95,0.00,,,-99.99,,2013-06-10 05:12:00,
2013-06-10 01:22:00,66.0,65.0,-100.00,South,170,1.0,3.0,95,0.00,,,-99.99,,2013-06-10 05:22:00,
2013-06-10 01:32:00,66.0,65.0,-100.00,South,170,2.0,3.0,95,0.55,,,-99.99,,2013-06-10 05:32:00,
2013-06-10 01:42:00,66.0,65.0,-100.00,SSE,160,1.0,3.0,95,0.00,,,-99.99,,2013-06-10 05:42:00,
2013-06-10 01:52:00,67.0,65.0,-100.00,SSE,160,2.0,3.0,94,0.00,,,-99.99,,2013-06-10 05:52:00,
2013-06-10 02:02:00,67.0,65.0,-100.00,SSE,160,2.0,3.0,94,0.00,,,-99.99,,2013-06-10 06:02:00,
2013-06-10 02:12:00,67.0,65.0,-100.00,SSE,165,2.0,4.0,95,0.00,,,-99.99,,2013-06-10 06:12:00,
2013-06-10 02:22:00,66.0,65.0,-100.00,SSE,160,1.0,3.0,95,0.00,,,-99.99,,2013-06-10 06:22:00,
2013-06-10 02:32:00,66.0,65.0,-100.00,South,170,0.0,3.0,96,0.00,,,-99.99,,2013-06-10 06:32:00,
2013-06-10 02:42:00,66.0,65.0,-100.00,SSE,165,1.0,2.0,96,0.00,,,-99.99,,2013-06-10 06:42:00,
2013-06-10 02:52:00,66.0,65.0,-100.00,South,170,1.0,2.0,97,0.00,,,-99.99,,2013-06-10 06:52:00,
2013-06-10 03:02:00,66.0,65.0,-100.00,South,175,1.0,2.0,97,0.00,,,-99.99,,2013-06-10 07:02:00,
2013-06-10 03:12:00,66.0,65.0,-100.00,SSE,160,1.0,2.0,97,0.00,,,-99.99,,2013-06-10 07:12:00,
2013-06-10 03:22:00,66.0,65.0,-100.00,South,175,1.0,6.0,96,0.00,,,-99.99,,2013-06-10 07:22:00,
2013-06-10 03:32:00,66.0,65.0,-100.00,South,170,1.0,2.0,96,0.00,,,-99.99,,2013-06-10 07:32:00,
2013-06-10 03:42:00,66.0,65.0,-100.00,South,170,1.0,4.0,96,0.00,,,-99.99,,2013-06-10 07:42:00,
2013-06-10 03:52:00,66.0,65.0,-100.00,SSE,160,1.0,2.0,97,0.00,,,-99.99,,2013-06-10 07:52:00,
2013-06-10 04:02:00,66.0,66.0,-100.00,South,185,1.0,4.0,97,0.00,,,-99.99,,2013-06-10 08:02:00,
2013-06-10 04:12:00,66.0,66.0,-100.00,South,185,1.0,2.0,97,1.69,,,-99.99,,2013-06-10 08:12:00,
2013-06-10 04:22:00,66.0,66.0,-100.00,SSE,155,1.0,4.0,97,1.69,,,-99.99,,2013-06-10 08:22:00,
2013-06-10 04:32:00,66.0,66.0,-100.00,SSE,165,1.0,4.0,98,0.55,,,-99.99,,2013-06-10 08:32:00,
2013-06-10 04:42:00,66.0,66.0,-100.00,SSE,150,0.0,4.0,98,0.55,,,-99.99,,2013-06-10 08:42:00,
2013-06-10 04:52:00,66.0,66.0,-100.00,SSW,195,0.0,3.0,98,3.94,,,-99.99,,2013-06-10 08:52:00,
2013-06-10 05:02:00,66.0,66.0,-100.00,ENE,65,0.0,3.0,98,0.55,,,-99.99,,2013-06-10 09:02:00,
2013-06-10 05:12:00,66.0,66.0,-100.00,SSE,155,0.0,4.0,98,1.10,,,-99.99,,2013-06-10 09:12:00,
2013-06-10 05:22:00,66.0,66.0,-100.00,WSW,245,0.0,6.0,98,0.00,,,-99.99,,2013-06-10 09:22:00,
2013-06-10 05:32:00,66.0,66.0,-100.00,SSE,160,0.0,3.0,98,0.00,,,-99.99,,2013-06-10 09:32:00,
2013-06-10 05:42:00,66.0,66.0,-100.00,South,175,0.0,4.0,98,0.00,,,-99.99,,2013-06-10 09:42:00,
2013-06-10 05:53:00,66.0,66.0,-100.00,SW,235,0.0,3.0,98,0.55,,,-99.99,,2013-06-10 09:53:00,
2013-06-10 06:03:00,66.0,66.0,-100.00,SSE,155,1.0,4.0,99,0.00,,,-99.99,,2013-06-10 10:03:00,
2013-06-10 06:12:00,66.0,66.0,-100.00,South,185,1.0,3.0,99,0.00,,,-99.99,,2013-06-10 10:12:00,
2013-06-10 06:22:00,66.0,66.0,-100.00,SW,220,1.0,4.0,99,0.00,,,-99.99,,2013-06-10 10:22:00,
2013-06-10 06:33:00,66.0,66.0,-100.00,SW,220,1.0,4.0,99,0.00,,,-99.99,,2013-06-10 10:33:00,
2013-06-10 06:42:00,66.0,66.0,-100.00,South,175,1.0,4.0,99,0.00,,,-99.99,,2013-06-10 10:42:00,
2013-06-10 06:52:00,66.0,66.0,-100.00,SSE,155,1.0,7.0,99,0.00,,,-99.99,,2013-06-10 10:52:00,
2013-06-10 07:03:00,67.0,66.0,-100.00,SE,140,1.0,2.0,99,0.00,,,-99.99,,2013-06-10 11:03:00,
2013-06-10 07:12:00,67.0,66.0,-100.00,SSE,160,1.0,3.0,99,0.00,,,-99.99,,2013-06-10 11:12:00,
2013-06-10 07:22:00,67.0,66.0,-100.00,SSE,160,1.0,2.0,99,0.00,,,-99.99,,2013-06-10 11:22:00,
2013-06-10 07:32:00,67.0,66.0,-100.00,SSE,160,1.0,3.0,99,0.00,,,-99.99,,2013-06-10 11:32:00,
2013-06-10 07:42:00,67.0,67.0,-100.00,South,170,1.0,4.0,99,0.00,,,-99.99,,2013-06-10 11:42:00,
2013-06-10 07:52:00,67.0,67.0,-100.00,SSE,165,1.0,3.0,99,0.00,,,-99.99,,2013-06-10 11:52:00,
2013-06-10 08:02:00,67.0,67.0,-100.00,South,175,1.0,5.0,99,0.00,,,-99.99,,2013-06-10 12:02:00,
2013-06-10 08:12:00,67.0,67.0,-100.00,SSE,165,1.0,6.0,99,0.00,,,-99.99,,2013-06-10 12:12:00,
2013-06-10 08:22:00,67.0,67.0,-100.00,SW,215,1.0,3.0,99,0.00,,,-99.99,,2013-06-10 12:22:00,
2013-06-10 08:32:00,67.0,67.0,-100.00,South,185,1.0,3.0,98,0.55,,,-99.99,,2013-06-10 12:32:00,
2013-06-10 08:42:00,67.0,67.0,-100.00,South,185,1.0,3.0,98,0.00,,,-99.99,,2013-06-10 12:42:00,
2013-06-10 08:52:00,68.0,67.0,-100.00,South,180,1.0,3.0,98,0.55,,,-99.99,,2013-06-10 12:52:00,
2013-06-10 09:02:00,68.0,67.0,-100.00,South,190,1.0,4.0,98,0.00,,,-99.99,,2013-06-10 13:02:00,
2013-06-10 09:12:00,68.0,67.0,-100.00,South,190,1.0,4.0,97,0.00,,,-99.99,,2013-06-10 13:12:00,
2013-06-10 09:22:00,68.0,67.0,-100.00,South,185,1.0,3.0,97,0.00,,,-99.99,,2013-06-10 13:22:00,
2013-06-10 09:32:00,68.0,67.0,-100.00,South,180,1.0,6.0,97,0.00,,,-99.99,,2013-06-10 13:32:00,
2013-06-10 09:42:00,68.0,67.0,-100.00,South,175,1.0,4.0,97,0.00,,,-99.99,,2013-06-10 13:42:00,
2013-06-10 09:52:00,68.0,67.0,-100.00,SW,215,1.0,6.0,97,3.39,,,-99.99,,2013-06-10 13:52:00,
2013-06-10 10:02:00,68.0,68.0,-100.00,SSW,195,2.0,7.0,97,0.00,,,-99.99,,2013-06-10 14:02:00,
2013-06-10 10:12:00,68.0,67.0,-100.00,SW,225,2.0,6.0,98,0.00,,,-99.99,,2013-06-10 14:12:00,
2013-06-10 10:22:00,67.0,67.0,-100.00,SSW,210,2.0,6.0,96,2.24,,,-99.99,,2013-06-10 14:22:00,
2013-06-10 10:32:00,67.0,65.0,-100.00,SW,235,2.0,10.0,94,0.00,,,-99.99,,2013-06-10 14:32:00,
2013-06-10 10:42:00,67.0,66.0,-100.00,WSW,240,2.0,6.0,96,0.00,,,-99.99,,2013-06-10 14:42:00,
2013-06-10 10:52:00,68.0,67.0,-100.00,West,270,2.0,9.0,96,0.00,,,-99.99,,2013-06-10 14:52:00,
2013-06-10 11:03:00,69.0,67.0,-100.00,SW,235,2.0,6.0,95,0.00,,,-99.99,,2013-06-10 15:03:00,
2013-06-10 11:12:00,69.0,67.0,-100.00,SW,235,2.0,6.0,95,0.00,,,-99.99,,2013-06-10 15:12:00,
2013-06-10 11:22:00,69.0,67.0,-100.00,SSW,195,1.0,3.0,96,0.00,,,-99.99,,2013-06-10 15:22:00,
2013-06-10 11:33:00,69.0,67.0,-100.00,SSW,205,1.0,7.0,95,0.00,,,-99.99,,2013-06-10 15:33:00,
2013-06-10 11:43:00,69.0,67.0,-100.00,South,190,1.0,3.0,92,0.00,,,-99.99,,2013-06-10 15:43:00,
2013-06-10 11:53:00,69.0,68.0,-100.00,South,170,1.0,5.0,94,0.00,,,-99.99,,2013-06-10 15:53:00,
2013-06-10 12:03:00,69.0,66.0,-100.00,South,190,2.0,3.0,92,0.00,,,-99.99,,2013-06-10 16:03:00,
2013-06-10 12:13:00,69.0,67.0,-100.00,SSW,205,2.0,4.0,93,0.00,,,-99.99,,2013-06-10 16:13:00,
2013-06-10 12:23:00,69.0,66.0,-100.00,South,175,2.0,7.0,91,0.00,,,-99.99,,2013-06-10 16:23:00,
2013-06-10 12:33:00,69.0,67.0,-100.00,SSW,200,2.0,6.0,92,0.00,,,-99.99,,2013-06-10 16:33:00,
2013-06-10 12:43:00,69.0,65.0,-100.00,SSW,200,2.0,6.0,87,0.00,,,-99.99,,2013-06-10 16:43:00,
2013-06-10 12:52:00,70.0,67.0,-100.00,SSW,210,2.0,8.0,88,0.00,,,-99.99,,2013-06-10 16:52:00,
2013-06-10 13:03:00,69.0,65.0,-100.00,SSW,210,2.0,9.0,87,0.00,,,-99.99,,2013-06-10 17:03:00,
2013-06-10 13:14:00,69.0,66.0,-100.00,WSW,245,1.0,7.0,89,0.00,,,-99.99,,2013-06-10 17:14:00,
2013-06-10 13:27:00,71.0,67.0,-100.00,SSW,200,1.0,8.0,85,0.00,,,-99.99,,2013-06-10 17:27:00,
2013-06-10 13:38:00,71.0,65.0,-100.00,SSW,205,1.0,6.0,81,0.00,,,-99.99,,2013-06-10 17:38:00,
2013-06-10 13:48:00,71.0,66.0,-100.00,SSW,205,2.0,7.0,83,0.00,,,-99.99,,2013-06-10 17:48:00,
2013-06-10 13:57:00,71.0,65.0,-100.00,SW,215,1.0,6.0,83,0.00,,,-99.99,,2013-06-10 17:57:00,
2013-06-10 14:08:00,71.0,65.0,-100.00,ENE,75,1.0,8.0,81,0.00,,,-99.99,,2013-06-10 18:08:00,
2013-06-10 14:14:00,70.0,65.0,-100.00,South,190,1.0,6.0,83,0.00,,,-99.99,,2013-06-10 18:14:00,
2013-06-10 14:25:00,70.0,65.0,-100.00,South,190,1.0,6.0,83,0.00,,,-99.99,,2013-06-10 18:25:00,
2013-06-10 14:35:00,70.0,66.0,-100.00,SSW,205,2.0,9.0,85,0.00,,,-99.99,,2013-06-10 18:35:00,
2013-06-10 14:48:00,70.0,65.0,-100.00,SW,225,2.0,8.0,85,0.00,,,-99.99,,2013-06-10 18:48:00,
2013-06-10 14:55:00,69.0,65.0,-100.00,SSW,195,2.0,9.0,88,0.00,,,-99.99,,2013-06-10 18:55:00,
2013-06-10 15:03:00,68.0,65.0,-100.00,SSW,200,1.0,7.0,91,4.53,,,-99.99,,2013-06-10 19:03:00,
2013-06-10 15:13:00,68.0,66.0,-100.00,West,275,2.0,8.0,93,0.00,,,-99.99,,2013-06-10 19:13:00,
2013-06-10 15:22:00,69.0,67.0,-100.00,South,190,1.0,9.0,92,0.00,,,-99.99,,2013-06-10 19:22:00,
2013-06-10 15:33:00,69.0,67.0,-100.00,WSW,245,2.0,7.0,90,0.00,,,-99.99,,2013-06-10 19:33:00,
2013-06-10 15:43:00,71.0,67.0,-100.00,South,185,3.0,9.0,88,0.00,,,-99.99,,2013-06-10 19:43:00,
2013-06-10 15:52:00,71.0,66.0,-100.00,WNW,290,2.0,9.0,86,0.00,,,-99.99,,2013-06-10 19:52:00,
2013-06-10 16:03:00,71.0,66.0,-100.00,WSW,240,3.0,9.0,85,0.00,,,-99.99,,2013-06-10 20:03:00,
2013-06-10 16:12:00,73.0,67.0,-100.00,West,280,5.0,12.0,80,0.00,,,-99.99,,2013-06-10 20:12:00,
2013-06-10 16:23:00,74.0,67.0,-100.00,WSW,255,4.0,16.0,78,0.00,,,-99.99,,2013-06-10 20:23:00,
2013-06-10 16:32:00,73.0,66.0,-100.00,SSW,195,2.0,8.0,80,0.00,,,-99.99,,2013-06-10 20:32:00,
2013-06-10 16:43:00,74.0,66.0,-100.00,South,190,2.0,7.0,76,0.00,,,-99.99,,2013-06-10 20:43:00,
2013-06-10 16:52:00,73.0,65.0,-100.00,South,185,1.0,9.0,77,0.00,,,-99.99,,2013-06-10 20:52:00,
2013-06-10 17:02:00,75.0,66.0,-100.00,SW,230,1.0,10.0,73,0.00,,,-99.99,,2013-06-10 21:02:00,
2013-06-10 17:12:00,75.0,66.0,-100.00,South,190,1.0,8.0,73,0.00,,,-99.99,,2013-06-10 21:12:00,
2013-06-10 17:23:00,74.0,65.0,-100.00,WSW,240,3.0,11.0,75,0.00,,,-99.99,,2013-06-10 21:23:00,
2013-06-10 17:33:00,75.0,65.0,-100.00,SSW,205,1.0,11.0,70,0.00,,,-99.99,,2013-06-10 21:33:00,
2013-06-10 17:43:00,76.0,66.0,-100.00,NNW,340,1.0,11.0,72,0.00,,,-99.99,,2013-06-10 21:43:00,
2013-06-10 17:53:00,74.0,65.0,-100.00,SSW,205,1.0,5.0,74,0.00,,,-99.99,,2013-06-10 21:53:00,
2013-06-10 18:03:00,73.0,65.0,-100.00,SW,215,2.0,6.0,76,0.00,,,-99.99,,2013-06-10 22:03:00,
2013-06-10 18:13:00,73.0,65.0,-100.00,SSW,205,1.0,6.0,75,0.00,,,-99.99,,2013-06-10 22:13:00,
2013-06-10 18:22:00,73.0,65.0,-100.00,SW,215,1.0,5.0,75,0.00,,,-99.99,,2013-06-10 22:22:00,
2013-06-10 18:33:00,74.0,64.0,-100.00,South,185,1.0,6.0,72,0.00,,,-99.99,,2013-06-10 22:33:00,
2013-06-10 18:42:00,75.0,66.0,-100.00,SSW,205,1.0,6.0,72,0.00,,,-99.99,,2013-06-10 22:42:00,
2013-06-10 18:52:00,74.0,65.0,-100.00,SSW,200,2.0,4.0,72,0.00,,,-99.99,,2013-06-10 22:52:00,
2013-06-10 19:03:00,73.0,65.0,-100.00,SW,215,1.0,3.0,74,0.00,,,-99.99,,2013-06-10 23:03:00,
2013-06-10 19:12:00,72.0,64.0,-100.00,SSW,195,1.0,6.0,76,0.00,,,-99.99,,2013-06-10 23:12:00,
2013-06-10 19:22:00,72.0,63.0,-100.00,SSW,200,2.0,4.0,74,0.00,,,-99.99,,2013-06-10 23:22:00,
2013-06-10 19:32:00,71.0,62.0,-100.00,SSW,200,2.0,6.0,73,0.00,,,-99.99,,2013-06-10 23:32:00,
2013-06-10 19:42:00,71.0,62.0,-100.00,SSW,205,1.0,4.0,74,0.00,,,-99.99,,2013-06-10 23:42:00,
2013-06-10 19:52:00,71.0,62.0,-100.00,SW,230,2.0,8.0,75,0.00,,,-99.99,,2013-06-10 23:52:00,
2013-06-10 20:02:00,70.0,63.0,-100.00,SSW,205,2.0,7.0,77,0.00,,,-99.99,,2013-06-11 00:02:00,
2013-06-10 20:12:00,70.0,63.0,-100.00,SW,225,1.0,6.0,79,0.00,,,-99.99,,2013-06-11 00:12:00,
2013-06-10 20:22:00,70.0,64.0,-100.00,West,280,6.0,12.0,82,0.00,,,-99.99,,2013-06-11 00:22:00,
2013-06-10 20:32:00,69.0,63.0,-100.00,SW,220,3.0,7.0,81,0.00,,,-99.99,,2013-06-11 00:32:00,
2013-06-10 20:42:00,69.0,62.0,-100.00,SW,225,1.0,9.0,80,0.00,,,-99.99,,2013-06-11 00:42:00,
2013-06-10 20:52:00,68.0,62.0,-100.00,South,185,1.0,7.0,81,0.00,,,-99.99,,2013-06-11 00:52:00,
2013-06-10 21:02:00,68.0,62.0,-100.00,SSW,195,2.0,8.0,81,0.00,,,-99.99,,2013-06-11 01:02:00,
2013-06-10 21:12:00,68.0,62.0,-100.00,SE,145,2.0,7.0,82,0.00,,,-99.99,,2013-06-11 01:12:00,
2013-06-10 21:22:00,67.0,62.0,-100.00,WSW,245,1.0,6.0,83,0.00,,,-99.99,,2013-06-11 01:22:00,
2013-06-10 21:33:00,66.0,61.0,-100.00,SSW,210,1.0,6.0,84,0.00,,,-99.99,,2013-06-11 01:33:00,
2013-06-10 21:42:00,66.0,61.0,-100.00,WSW,245,1.0,6.0,83,0.00,,,-99.99,,2013-06-11 01:42:00,
2013-06-10 21:52:00,66.0,61.0,-100.00,SSW,205,1.0,7.0,82,0.00,,,-99.99,,2013-06-11 01:52:00,
2013-06-10 22:02:00,66.0,61.0,-100.00,SW,215,0.0,6.0,82,0.00,,,-99.99,,2013-06-11 02:02:00,
2013-06-10 22:12:00,66.0,61.0,-100.00,South,190,1.0,4.0,84,0.00,,,-99.99,,2013-06-11 02:12:00,
2013-06-10 22:22:00,66.0,61.0,-100.00,SW,220,1.0,8.0,84,0.00,,,-99.99,,2013-06-11 02:22:00,
2013-06-10 22:32:00,65.0,61.0,-100.00,SW,235,1.0,8.0,87,0.00,,,-99.99,,2013-06-11 02:32:00,
2013-06-10 22:42:00,65.0,61.0,-100.00,SW,225,1.0,8.0,87,0.00,,,-99.99,,2013-06-11 02:42:00,
2013-06-10 22:52:00,64.0,61.0,-100.00,SSW,210,1.0,4.0,89,0.00,,,-99.99,,2013-06-11 02:52:00,
2013-06-10 23:03:00,64.0,61.0,-100.00,SSW,205,1.0,6.0,89,0.00,,,-99.99,,2013-06-11 03:03:00,
2013-06-10 23:13:00,64.0,61.0,-100.00,SW,215,1.0,7.0,90,0.00,,,-99.99,,2013-06-11 03:13:00,
2013-06-10 23:22:00,63.0,61.0,-100.00,South,180,1.0,3.0,94,0.00,,,-99.99,,2013-06-11 03:22:00,
2013-06-10 23:32:00,63.0,62.0,-100.00,SW,225,1.0,3.0,94,0.00,,,-99.99,,2013-06-11 03:32:00,
2013-06-10 23:43:00,64.0,62.0,-100.00,SW,230,0.0,6.0,91,0.00,,,-99.99,,2013-06-11 03:43:00,
2013-06-10 23:53:00,65.0,62.0,-100.00,SSW,195,0.0,12.0,90,0.00,,,-99.99,,2013-06-11 03:53:00,